レモン彗星

C/2024 B1 ( Lemmon )

English version
Home page
Updated on May 27, 2025

---------------------------------------------------------------------

・ プロフィール

発見日 2024年1月16日
発見光度 20.6等
発見者 Mt. Lemmon Survey

・ 写真集

・ 軌道要素

Epoch 2025 May 5.0 TT = JDT 2460800.5
T 2024 Oct. 7.71511 TT                                  Pike
q   1.6337833            (2000.0)            P               Q
z  -0.0006130      Peri.   66.21549     -0.21841438     -0.30125316
 +/-0.0000018      Node    79.18834     +0.07101276     -0.95354216
e   1.0010015      Incl.   70.90312     +0.97326890     +0.00196825
From 244 observations 2023 Oct. 13-2025 Feb. 26, mean residual 0".7.

・ 星図

・ 光度変化

        m1 = 8.5 + 5 logΔ + 16.0 log r   [,0]  (              〜2024年10月 7日)
        m1 = 9.2 + 5 logΔ + 13.0 log r  [0 ,]  (2024年10月 7日〜              )

---------------------------------------------------------------------

軌道要素はM.P.E.C. 2025-D254に掲載されたものです。
星図はステラナビゲータ Ver.11 (アストロアーツ) で作成したものです。
光度グラフはComet for Windowsで作成したものです。

---------------------------------------------------------------------

Copyright(C) Seiichi Yoshida (comet@aerith.net). All rights reserved.